Skip Page Navigation
NASA JPL Caltech
NASA Logo - Jet Propulsion Laboratory + View the NASA Portal
+ Center for Near-Earth Object Studies
JPL Home Earth Solar System Stars & Galaxies Technology
JPL Solar System Dynamics
BODIES ORBITS EPHEMERIDES TOOLS PHYSICAL DATA DISCOVERY FAQ SITE MAP
IMPORTANT: The SSD Announcement email list is now available. Major changes are coming in the near future, including possible hostname and/or URL changes. To be notified of such changes, subscribe to this email list.

Please visit this page for more details.


JPL Small-Body Database Browser
Search: [ help ]  
324327 (2006 JB72)
Classification: Outer Main-belt Asteroid          SPK-ID: 2324327
Ephemeris | Orbit Diagram | Orbital Elements | Mission Design | Physical Parameters | Discovery Circumstances | Close-Approach Data ]

[ show orbit diagram ]
Orbital Elements at Epoch 2458600.5 (2019-Apr-27.0) TDB
Reference: JPL 11 (heliocentric ecliptic J2000)
 Element Value Uncertainty (1-sigma)   Units 
e .09682413554166043 5.8674e-08  
a 3.431155832847074 5.9938e-08 au
q 3.09893713542293 2.2551e-07 au
i 9.555641465989385 1.0739e-05 deg
node 215.4517431529936 3.9097e-05 deg
peri 92.42258187584559 6.9692e-05 deg
M 293.211477759087 5.8032e-05 deg
tp 2459031.183689462591
(2020-Jun-30.68368946)
0.00037509 TDB
period 2321.448701129596
6.36
6.083e-05
1.665e-07
d
yr
n .1550755783769107 4.0635e-09 deg/d
Q 3.763374530271217 6.5742e-08 au
  Orbit Determination Parameters
   # obs. used (total)      126  
   data-arc span      6080 days (16.65 yr)  
   first obs. used      2002-10-29  
   last obs. used      2019-06-22  
   planetary ephem.      DE431  
   SB-pert. ephem.      SB431-N16  
   condition code      0  
   norm. resid. RMS      .63539  
   source      ORB  
   producer      Otto Matic  
   solution date      2019-Sep-24 06:13:13  

Additional Information
 Earth MOID = 2.10418 au 
 Jupiter MOID = 1.51448 au 
 T_jup = 3.111 
[ show covariance matrix ]

Ephemeris | Orbit Diagram | Orbital Elements | Mission Design | Physical Parameters | Discovery Circumstances | Close-Approach Data ]

Physical Parameter Table
Parameter Symbol Value Units Sigma Reference Notes
absolute magnitude H 15.5   n/a MPO440498  

324327 (2006 JB72)          Discovered 2006-May-01 by Wiegert, P. A. at Mauna Kea
Reference: 20120406/Numbers.arcLast Updated: 2012-04-09

[ show close-approach data ]
Ephemeris | Orbit Diagram | Orbital Elements | Mission Design | Physical Parameters | Discovery Circumstances | Close-Approach Data ]
ABOUT SSD CREDITS/AWARDS PRIVACY/COPYRIGHT GLOSSARY LINKS
FirstGov 2019-Oct-14 17:10 UT
(server date/time)  
NASA Home Page
Site Manager:   Ryan S. Park
Webmaster  Alan B. Chamberlin